| time (UTC) | temp F | wind direction | speed knots | gust knots | rain 1hr in | rain 24hr in | rain mn in | humidity % | barometer mb |
| 20260905044140 | 49 | 252 | 0.9 | 2.6 | 0.03 | 0.05 | 0.05 | 91 | 1013.3 |
| 20260905043634 | 49 | 253 | 0.9 | 2.6 | 0.03 | 0.05 | 0.05 | 90 | 1013.3 |
| 20260905043129 | 49 | 253 | 0.0 | 2.6 | 0.03 | 0.05 | 0.05 | 90 | 1013.2 |
| 20260905042622 | 49 | 247 | 0.0 | 2.6 | 0.03 | 0.05 | 0.05 | 90 | 1013.2 |
| 20260905042115 | 50 | 245 | 0.0 | 2.6 | 0.03 | 0.05 | 0.05 | 89 | 1013.2 |
| 20260905041610 | 50 | 242 | 0.0 | 0.0 | 0.02 | 0.04 | 0.04 | 88 | 1013.2 |
| 20260905041104 | 50 | 242 | 0.0 | 0.0 | 0.02 | 0.04 | 0.04 | 87 | 1013.1 |
| 20260905040558 | 51 | 240 | 0.0 | 0.0 | 0.02 | 0.04 | 0.04 | 87 | 1013.1 |
| 20260905040052 | 51 | 238 | 0.0 | 2.6 | 0.00 | 0.02 | 0.03 | 85 | 1013.3 |
| 20260905035747 | 51 | 238 | 0.9 | 3.5 | 0.00 | 0.02 | 0.02 | 84 | 1013.3 |
| 20260905034534 | 51 | 226 | 1.7 | 4.3 | 0.00 | 0.02 | 0.02 | 84 | 1013.4 |
| 20260905034254 | 51 | 203 | 1.7 | 6.1 | 0.00 | 0.02 | 0.02 | 85 | 1013.4 |
| 20260905033522 | 51 | 207 | 2.6 | 6.1 | 0.00 | 0.02 | 0.02 | 85 | 1013.4 |
| 20260905033015 | 51 | 233 | 2.6 | 6.1 | 0.00 | 0.02 | 0.02 | 85 | 1013.3 |
| 20260905032509 | 51 | 217 | 2.6 | 6.1 | 0.00 | 0.02 | 0.02 | 85 | 1013.2 |
| 20260905032008 | 51 | 220 | 1.7 | 5.2 | 0.00 | 0.02 | 0.02 | 85 | 1013.1 |
| 20260905031508 | 51 | 238 | 2.6 | 7.0 | 0.00 | 0.02 | 0.02 | 85 | 1013.0 |
| 20260905031006 | 51 | 249 | 3.5 | 7.0 | 0.00 | 0.02 | 0.02 | 85 | 1013.0 |
| 20260905030507 | 51 | 256 | 2.6 | 7.0 | 0.00 | 0.02 | 0.02 | 84 | 1013.0 |
| 20260905030005 | 51 | 256 | 1.7 | 5.2 | 0.00 | 0.02 | 0.02 | 83 | 1012.9 |
| 20260905025506 | 52 | 279 | 1.7 | 5.2 | 0.00 | 0.02 | 0.02 | 82 | 1012.7 |
| 20260905025006 | 52 | 291 | 1.7 | 3.5 | 0.00 | 0.02 | 0.02 | 80 | 1012.7 |
| 20260905024504 | 52 | 297 | 0.9 | 3.5 | 0.00 | 0.02 | 0.02 | 79 | 1012.6 |
| 20260905024004 | 53 | 298 | 0.9 | 3.5 | 0.00 | 0.02 | 0.02 | 78 | 1012.6 |
| 20260905023504 | 53 | 298 | 1.7 | 5.2 | 0.00 | 0.02 | 0.02 | 77 | 1012.4 |
| 20260905023004 | 54 | 297 | 1.7 | 5.2 | 0.00 | 0.02 | 0.02 | 77 | 1012.4 |
| 20260905022504 | 54 | 294 | 1.7 | 5.2 | 0.00 | 0.02 | 0.02 | 76 | 1012.4 |
| 20260905022004 | 55 | 283 | 1.7 | 6.1 | 0.00 | 0.02 | 0.02 | 75 | 1012.6 |
| 20260905021504 | 55 | 232 | 1.7 | 6.1 | 0.00 | 0.02 | 0.02 | 73 | 1012.6 |
| 20260905021004 | 56 | 281 | 0.9 | 5.2 | 0.00 | 0.02 | 0.02 | 74 | 1012.4 |
| 20260905020504 | 56 | 261 | 0.0 | 2.6 | 0.00 | 0.02 | 0.02 | 69 | 1012.6 |
| 20260905020003 | 56 | 268 | 0.9 | 2.6 | 0.00 | 0.02 | 0.02 | 67 | 1012.3 |
| 20260905015505 | 56 | 259 | 0.9 | 4.3 | 0.00 | 0.02 | 0.02 | 67 | 1012.3 |
| 20260905015004 | 56 | 257 | 0.9 | 4.3 | 0.00 | 0.02 | 0.02 | 66 | 1012.1 |
| 20260905014504 | 56 | 257 | 0.9 | 3.5 | 0.00 | 0.02 | 0.02 | 66 | 1012.1 |
| 20260905014004 | 57 | 265 | 0.9 | 3.5 | 0.00 | 0.02 | 0.02 | 63 | 1012.0 |
| 20260905013504 | 57 | 273 | 1.7 | 5.2 | 0.00 | 0.02 | 0.02 | 62 | 1012.0 |
| 20260905013002 | 58 | 269 | 1.7 | 5.2 | 0.00 | 0.02 | 0.02 | 60 | 1012.0 |
| 20260905012704 | 59 | 279 | 1.7 | 5.2 | 0.00 | 0.02 | 0.02 | 60 | 1012.0 |
| 20260905011502 | 60 | 294 | 0.9 | 3.5 | 0.00 | 0.02 | 0.02 | 57 | 1011.9 |
| 20260905011227 | 60 | 286 | 1.7 | 3.5 | 0.00 | 0.02 | 0.02 | 58 | 1011.9 |
| 20260905010500 | 60 | 296 | 1.7 | 3.5 | 0.00 | 0.02 | 0.02 | 60 | 1011.9 |
| 20260905005959 | 59 | 324 | 0.9 | 3.5 | 0.00 | 0.02 | 0.02 | 61 | 1011.9 |
| 20260905005459 | 59 | 333 | 0.9 | 3.5 | 0.00 | 0.02 | 0.02 | 63 | 1011.9 |
| 20260905005000 | 58 | 299 | 0.9 | 2.6 | 0.00 | 0.02 | 0.02 | 66 | 1011.7 |
| 20260905004459 | 58 | 299 | 0.0 | 2.6 | 0.00 | 0.02 | 0.02 | 65 | 1011.6 |
| 20260905004219 | 57 | 294 | 0.0 | 2.6 | 0.00 | 0.02 | 0.02 | 68 | 1011.5 |
| 20260905003454 | 57 | 295 | 0.9 | 2.6 | 0.00 | 0.02 | 0.02 | 68 | 1011.5 |
| 20260905002954 | 57 | 296 | 0.9 | 3.5 | 0.00 | 0.02 | 0.02 | 68 | 1011.5 |
| 20260905002453 | 57 | 295 | 1.7 | 5.2 | 0.00 | 0.02 | 0.02 | 71 | 1011.5 |
| 20260905001951 | 56 | 294 | 1.7 | 5.2 | 0.00 | 0.02 | 0.02 | 72 | 1011.5 |
| 20260905001447 | 56 | 285 | 1.7 | 5.2 | 0.00 | 0.02 | 0.02 | 71 | 1011.5 |
| 20260905001430 | 56 | 299 | 1.7 | 6.1 | 0.00 | 0.02 | 0.02 | 70 | 1011.4 |
| 20260905000433 | 56 | 309 | 2.6 | 6.1 | 0.00 | 0.02 | 0.02 | 70 | 1011.5 |
| 20260904235927 | 56 | 282 | 2.6 | 8.7 | 0.00 | 0.02 | 0.02 | 71 | 1011.5 |
| 20260904235425 | 56 | 284 | 3.5 | 8.7 | 0.01 | 0.02 | 0.02 | 70 | 1011.4 |
| 20260904234925 | 57 | 294 | 3.5 | 8.7 | 0.01 | 0.02 | 0.02 | 73 | 1011.4 |
| 20260904234426 | 56 | 295 | 3.5 | 8.7 | 0.02 | 0.02 | 0.02 | 74 | 1011.3 |
| 20260904233936 | 55 | 235 | 4.3 | 8.7 | 0.02 | 0.02 | 0.02 | 77 | 1011.3 |
| 20260904233717 | 55 | 235 | 3.5 | 8.7 | 0.02 | 0.02 | 0.02 | 80 | 1011.1 |
| 20260904233712 | 54 | 265 | 2.6 | 7.8 | 0.02 | 0.02 | 0.02 | 85 | 1011.0 |
| 20260904232426 | 53 | 288 | 2.6 | 7.0 | 0.02 | 0.02 | 0.02 | 84 | 1011.0 |
| 20260904231923 | 53 | 296 | 2.6 | 5.2 | 0.02 | 0.02 | 0.02 | 85 | 1011.0 |
| 20260904231423 | 52 | 272 | 1.7 | 5.2 | 0.02 | 0.02 | 0.02 | 89 | 1011.0 |
| 20260904230923 | 51 | 265 | 1.7 | 5.2 | 0.02 | 0.02 | 0.02 | 88 | 1011.0 |
| 20260904230706 | 51 | 237 | 2.6 | 6.1 | 0.02 | 0.02 | 0.02 | 87 | 1010.9 |
| 20260904225923 | 50 | 208 | 4.3 | 10.4 | 0.02 | 0.02 | 0.02 | 85 | 1010.9 |
| 20260904225423 | 50 | 207 | 6.1 | 14.8 | 0.01 | 0.01 | 0.01 | 83 | 1011.0 |
| 20260904224945 | 53 | 202 | 7.8 | 17.4 | 0.00 | 0.00 | 0.00 | 75 | 1011.0 |
| 20260904224940 | 51 | 242 | 7.8 | 14.8 | 0.01 | 0.01 | 0.01 | 79 | 1011.1 |
| 20260904223932 | 55 | 204 | 7.8 | 17.4 | 0.00 | 0.00 | 0.00 | 66 | 1010.9 |
| 20260904223432 | 58 | 184 | 3.5 | 15.6 | 0.00 | 0.00 | 0.00 | 60 | 1010.9 |
| 20260904222927 | 61 | 181 | 0.9 | 3.5 | 0.00 | 0.00 | 0.00 | 52 | 1010.6 |
| 20260904222434 | 61 | 121 | 0.9 | 5.2 | 0.00 | 0.00 | 0.00 | 51 | 1010.3 |
| 20260904221408 | 62 | 136 | 1.7 | 8.7 | 0.00 | 0.00 | 0.00 | 50 | 1010.4 |
| 20260904220906 | 62 | 150 | 1.7 | 6.1 | 0.00 | 0.00 | 0.00 | 50 | 1010.3 |
| 20260904220401 | 62 | 115 | 2.6 | 8.7 | 0.00 | 0.00 | 0.00 | 50 | 1010.3 |
| 20260904215854 | 63 | 92 | 2.6 | 8.7 | 0.00 | 0.00 | 0.00 | 48 | 1010.3 |
| 20260904215618 | 63 | 86 | 1.7 | 6.1 | 0.00 | 0.00 | 0.00 | 48 | 1010.4 |
| 20260904214837 | 63 | 81 | 2.6 | 8.7 | 0.00 | 0.00 | 0.00 | 49 | 1010.5 |
| 20260904214332 | 63 | 118 | 3.5 | 9.6 | 0.00 | 0.00 | 0.00 | 49 | 1010.5 |
| 20260904213826 | 63 | 90 | 3.5 | 10.4 | 0.00 | 0.00 | 0.00 | 49 | 1010.5 |
| 20260904213319 | 62 | 92 | 3.5 | 10.4 | 0.00 | 0.00 | 0.00 | 49 | 1010.4 |
| 20260904213044 | 62 | 64 | 3.5 | 8.7 | 0.00 | 0.00 | 0.00 | 50 | 1010.4 |
| 20260904212307 | 62 | 173 | 3.5 | 8.7 | 0.00 | 0.00 | 0.00 | 51 | 1010.5 |
| 20260904211804 | 62 | 96 | 3.5 | 8.7 | 0.00 | 0.00 | 0.00 | 50 | 1010.4 |
| 20260904211300 | 62 | 152 | 3.5 | 8.7 | 0.00 | 0.00 | 0.00 | 50 | 1010.5 |
| 20260904210800 | 62 | 137 | 2.6 | 8.7 | 0.00 | 0.00 | 0.00 | 50 | 1010.5 |
| 20260904210541 | 62 | 116 | 3.5 | 8.7 | 0.00 | 0.00 | 0.00 | 51 | 1010.5 |
| 20260904205755 | 61 | 165 | 4.3 | 11.3 | 0.00 | 0.00 | 0.00 | 51 | 1010.5 |
| 20260904205255 | 61 | 133 | 4.3 | 11.3 | 0.00 | 0.00 | 0.00 | 51 | 1010.6 |
| 20260904204754 | 60 | 82 | 4.3 | 10.4 | 0.00 | 0.00 | 0.00 | 55 | 1010.5 |
| 20260904204254 | 59 | 124 | 4.3 | 10.4 | 0.00 | 0.00 | 0.00 | 56 | 1010.6 |
| 20260904203755 | 58 | 111 | 3.5 | 8.7 | 0.00 | 0.00 | 0.00 | 56 | 1010.6 |
| 20260904203255 | 58 | 143 | 3.5 | 8.7 | 0.00 | 0.00 | 0.00 | 55 | 1010.6 |
| 20260904202754 | 58 | 150 | 3.5 | 10.4 | 0.00 | 0.00 | 0.00 | 55 | 1010.6 |
| 20260904202255 | 58 | 200 | 4.3 | 10.4 | 0.00 | 0.00 | 0.00 | 54 | 1010.6 |
| 20260904201754 | 59 | 198 | 3.5 | 8.7 | 0.00 | 0.00 | 0.00 | 54 | 1010.7 |
| 20260904201254 | 59 | 148 | 3.5 | 10.4 | 0.00 | 0.00 | 0.00 | 55 | 1010.6 |
| 20260904200754 | 58 | 146 | 2.6 | 10.4 | 0.00 | 0.00 | 0.00 | 54 | 1010.8 |
| 20260904200254 | 58 | 142 | 3.5 | 10.4 | 0.00 | 0.00 | 0.00 | 55 | 1010.8 |
| 20260904200016 | 58 | 127 | 4.3 | 10.4 | 0.00 | 0.00 | 0.00 | 55 | 1010.9 |
| 20260904195754 | 58 | 127 | 4.3 | 10.4 | 0.00 | 0.00 | 0.00 | 55 | 1010.9 |
| 20260904195254 | 58 | 126 | 3.5 | 8.7 | 0.00 | 0.00 | 0.00 | 55 | 1011.0 |
| 20260904194751 | 58 | 117 | 3.5 | 8.7 | 0.00 | 0.00 | 0.00 | 54 | 1010.9 |
| 20260904194255 | 58 | 156 | 3.5 | 10.4 | 0.00 | 0.00 | 0.00 | 56 | 1011.0 |
| 20260904194017 | 57 | 169 | 4.3 | 10.4 | 0.00 | 0.00 | 0.00 | 57 | 1011.1 |
| 20260904193754 | 57 | 169 | 4.3 | 10.4 | 0.00 | 0.00 | 0.00 | 57 | 1011.1 |
| 20260904193252 | 57 | 136 | 3.5 | 9.6 | 0.00 | 0.00 | 0.00 | 57 | 1011.1 |
| 20260904193017 | 56 | 120 | 4.3 | 11.3 | 0.00 | 0.00 | 0.00 | 58 | 1011.1 |
| 20260904192253 | 56 | 147 | 5.2 | 11.3 | 0.00 | 0.00 | 0.00 | 57 | 1011.1 |
| 20260904191754 | 56 | 215 | 5.2 | 11.3 | 0.00 | 0.00 | 0.00 | 57 | 1011.1 |
| 20260904191337 | 56 | 207 | 4.3 | 11.3 | 0.00 | 0.00 | 0.00 | 59 | 1011.0 |
| 20260904191324 | 56 | 196 | 4.3 | 11.3 | 0.00 | 0.00 | 0.00 | 58 | 1011.0 |
| 20260904191053 | 57 | 212 | 4.3 | 13.0 | 0.00 | 0.00 | 0.00 | 59 | 1011.0 |
| 20260904185800 | 57 | 176 | 4.3 | 13.0 | 0.00 | 0.00 | 0.00 | 56 | 1011.0 |
| 20260904185256 | 57 | 156 | 4.3 | 9.6 | 0.00 | 0.00 | 0.00 | 56 | 1011.0 |
| 20260904184748 | 57 | 156 | 4.3 | 10.4 | 0.00 | 0.00 | 0.00 | 56 | 1011.0 |
| 20260904184248 | 58 | 198 | 4.3 | 10.4 | 0.00 | 0.00 | 0.00 | 55 | 1011.0 |
| 20260904183749 | 58 | 167 | 5.2 | 10.4 | 0.00 | 0.00 | 0.00 | 54 | 1010.9 |
| 20260904183249 | 58 | 144 | 4.3 | 10.4 | 0.00 | 0.00 | 0.00 | 53 | 1010.8 |
| 20260904182753 | 59 | 147 | 2.6 | 8.7 | 0.00 | 0.00 | 0.00 | 54 | 1010.7 |
| 20260904182509 | 59 | 211 | 2.6 | 10.4 | 0.00 | 0.00 | 0.00 | 55 | 1010.6 |
| 20260904182310 | 59 | 211 | 2.6 | 10.4 | 0.00 | 0.00 | 0.00 | 55 | 1010.6 |
| 20260904181745 | 59 | 198 | 2.6 | 10.4 | 0.00 | 0.00 | 0.00 | 55 | 1010.6 |
| 20260904181237 | 59 | 197 | 2.6 | 8.7 | 0.00 | 0.00 | 0.00 | 56 | 1010.6 |
| 20260904180730 | 58 | 146 | 3.5 | 8.7 | 0.00 | 0.00 | 0.00 | 55 | 1010.6 |
| 20260904180224 | 58 | 123 | 2.6 | 8.7 | 0.00 | 0.00 | 0.00 | 57 | 1010.5 |
| 20260904175720 | 57 | 127 | 0.9 | 4.3 | 0.00 | 0.00 | 0.00 | 59 | 1010.6 |
| 20260904175215 | 56 | 238 | 0.9 | 3.5 | 0.00 | 0.00 | 0.00 | 61 | 1010.7 |
| 20260904175210 | 55 | 326 | 0.9 | 2.6 | 0.00 | 0.00 | 0.00 | 61 | 1010.6 |
| 20260904174953 | 55 | 326 | 0.9 | 2.6 | 0.00 | 0.00 | 0.00 | 61 | 1010.6 |
| 20260904174200 | 55 | 326 | 1.7 | 3.5 | 0.00 | 0.00 | 0.00 | 61 | 1010.6 |
| 20260904173721 | 56 | 267 | 2.6 | 7.0 | 0.00 | 0.00 | 0.00 | 61 | 1010.4 |
| 20260904173708 | 55 | 325 | 1.7 | 6.1 | 0.00 | 0.00 | 0.00 | 61 | 1010.6 |
| 20260904172642 | 56 | 305 | 1.7 | 7.0 | 0.00 | 0.00 | 0.00 | 63 | 1010.5 |
| 20260904172136 | 56 | 310 | 1.7 | 3.5 | 0.00 | 0.00 | 0.00 | 62 | 1010.5 |
| 20260904171630 | 55 | 309 | 0.9 | 5.2 | 0.00 | 0.00 | 0.00 | 62 | 1010.6 |
| 20260904171124 | 56 | 286 | 0.0 | 5.2 | 0.00 | 0.00 | 0.00 | 61 | 1010.6 |
| 20260904170618 | 56 | 317 | 0.9 | 3.5 | 0.00 | 0.00 | 0.00 | 59 | 1010.5 |
| 20260904170112 | 56 | 317 | 0.9 | 3.5 | 0.00 | 0.00 | 0.00 | 61 | 1010.5 |
| 20260904165606 | 56 | 122 | 0.9 | 3.5 | 0.00 | 0.00 | 0.00 | 60 | 1010.5 |
| 20260904165100 | 55 | 125 | 0.9 | 3.5 | 0.00 | 0.00 | 0.00 | 63 | 1010.5 |
| 20260904164555 | 55 | 114 | 0.0 | 3.5 | 0.00 | 0.00 | 0.00 | 63 | 1010.5 |
| 20260904164053 | 54 | 24 | 0.0 | 2.6 | 0.00 | 0.00 | 0.00 | 63 | 1010.4 |
| 20260904163542 | 54 | 5 | 0.9 | 2.6 | 0.00 | 0.00 | 0.00 | 65 | 1010.3 |
| 20260904163036 | 53 | 355 | 0.9 | 2.6 | 0.00 | 0.00 | 0.00 | 66 | 1010.3 |
| 20260904162530 | 53 | 140 | 0.9 | 2.6 | 0.00 | 0.00 | 0.00 | 66 | 1010.2 |
| 20260904162024 | 52 | 140 | 0.0 | 2.6 | 0.00 | 0.00 | 0.00 | 68 | 1010.1 |
| 20260904161519 | 52 | 132 | 0.0 | 1.7 | 0.00 | 0.00 | 0.00 | 67 | 1010.2 |
| 20260904161012 | 52 | 125 | 0.0 | 2.6 | 0.00 | 0.00 | 0.00 | 67 | 1010.2 |
| 20260904160506 | 52 | 125 | 0.0 | 2.6 | 0.00 | 0.00 | 0.00 | 67 | 1010.2 |
| 20260904160000 | 52 | 124 | 0.9 | 2.6 | 0.00 | 0.00 | 0.00 | 67 | 1010.2 |
| 20260904155454 | 52 | 124 | 0.0 | 2.6 | 0.00 | 0.00 | 0.00 | 67 | 1010.1 |
| 20260904154948 | 51 | 124 | 0.0 | 2.6 | 0.00 | 0.00 | 0.00 | 67 | 1010.2 |
| 20260904154720 | 51 | 123 | 0.9 | 2.6 | 0.00 | 0.00 | 0.00 | 67 | 1010.2 |
| 20260904154213 | 51 | 124 | 0.9 | 2.6 | 0.00 | 0.00 | 0.00 | 68 | 1010.1 |
| 20260904153434 | 51 | 131 | 0.9 | 2.6 | 0.00 | 0.00 | 0.00 | 68 | 1010.3 |
| 20260904152926 | 51 | 134 | 0.9 | 2.6 | 0.00 | 0.00 | 0.00 | 67 | 1010.2 |
| 20260904152417 | 50 | 134 | 0.9 | 3.5 | 0.00 | 0.00 | 0.00 | 69 | 1010.3 |
| 20260904151912 | 50 | 134 | 1.7 | 3.5 | 0.00 | 0.00 | 0.00 | 70 | 1010.2 |
| 20260904151412 | 49 | 126 | 0.9 | 3.5 | 0.00 | 0.00 | 0.00 | 69 | 1010.1 |
| 20260904150912 | 49 | 144 | 1.7 | 4.3 | 0.00 | 0.00 | 0.00 | 69 | 1010.1 |
| 20260904150412 | 49 | 143 | 1.7 | 4.3 | 0.00 | 0.00 | 0.00 | 71 | 1009.9 |
| 20260904145912 | 48 | 178 | 1.7 | 4.3 | 0.00 | 0.00 | 0.00 | 71 | 1009.9 |
| 20260904145415 | 48 | 201 | 1.7 | 5.2 | 0.00 | 0.00 | 0.00 | 71 | 1009.7 |
| 20260904144912 | 47 | 146 | 1.7 | 5.2 | 0.00 | 0.00 | 0.00 | 73 | 1009.6 |
| 20260904144411 | 47 | 146 | 1.7 | 5.2 | 0.00 | 0.00 | 0.00 | 74 | 1009.5 |
| 20260904143912 | 46 | 139 | 1.7 | 5.2 | 0.00 | 0.00 | 0.00 | 75 | 1009.5 |
| 20260904143411 | 45 | 142 | 1.7 | 5.2 | 0.00 | 0.00 | 0.00 | 76 | 1009.4 |
| 20260904142912 | 45 | 144 | 2.6 | 5.2 | 0.00 | 0.00 | 0.00 | 77 | 1009.5 |
| 20260904142408 | 44 | 129 | 1.7 | 4.3 | 0.00 | 0.00 | 0.00 | 77 | 1009.5 |
| 20260904141907 | 44 | 146 | 0.9 | 4.3 | 0.00 | 0.00 | 0.00 | 78 | 1009.5 |
| 20260904141654 | 44 | 150 | 0.9 | 4.3 | 0.00 | 0.00 | 0.00 | 78 | 1009.3 |
| 20260904140909 | 44 | 150 | 0.9 | 4.3 | 0.00 | 0.00 | 0.00 | 78 | 1009.3 |
| 20260904140408 | 44 | 151 | 1.7 | 4.3 | 0.00 | 0.00 | 0.00 | 78 | 1009.3 |
| 20260904140148 | 44 | 149 | 2.6 | 6.1 | 0.00 | 0.00 | 0.00 | 79 | 1009.2 |
| 20260904135417 | 43 | 136 | 0.9 | 6.1 | 0.00 | 0.00 | 0.00 | 79 | 1009.2 |
| 20260904134919 | 43 | 144 | 0.9 | 2.6 | 0.00 | 0.00 | 0.00 | 80 | 1009.2 |
| 20260904134419 | 43 | 142 | 0.9 | 3.5 | 0.00 | 0.00 | 0.00 | 80 | 1009.1 |
| 20260904134138 | 43 | 142 | 1.7 | 3.5 | 0.00 | 0.00 | 0.00 | 80 | 1009.0 |
| 20260904133404 | 43 | 146 | 0.9 | 2.6 | 0.00 | 0.00 | 0.00 | 80 | 1008.9 |
| 20260904132906 | 43 | 146 | 0.0 | 1.7 | 0.00 | 0.00 | 0.00 | 79 | 1008.9 |
| 20260904132354 | 44 | 146 | 0.0 | 0.0 | 0.00 | 0.00 | 0.00 | 78 | 1008.7 |
| 20260904131845 | 44 | 146 | 0.0 | 0.0 | 0.00 | 0.00 | 0.00 | 78 | 1008.9 |
| 20260904131613 | 44 | 146 | 0.0 | 0.0 | 0.00 | 0.00 | 0.00 | 78 | 1008.9 |
| 20260904131104 | 44 | 146 | 0.0 | 0.0 | 0.00 | 0.00 | 0.00 | 78 | 1009.0 |
| 20260904130328 | 44 | 146 | 0.0 | 3.5 | 0.00 | 0.00 | 0.00 | 77 | 1009.0 |
| 20260904125822 | 44 | 146 | 0.9 | 3.5 | 0.00 | 0.00 | 0.00 | 77 | 1008.7 |
| 20260904125316 | 45 | 146 | 0.9 | 4.3 | 0.00 | 0.00 | 0.00 | 77 | 1008.7 |
| 20260904124811 | 45 | 146 | 1.7 | 4.3 | 0.00 | 0.00 | 0.00 | 77 | 1008.6 |
| 20260904124305 | 44 | 161 | 0.9 | 3.5 | 0.00 | 0.00 | 0.00 | 77 | 1008.7 |
| 20260904123800 | 44 | 150 | 0.9 | 3.5 | 0.00 | 0.00 | 0.00 | 78 | 1008.7 |
| 20260904123253 | 44 | 141 | 0.9 | 3.5 | 0.00 | 0.00 | 0.00 | 78 | 1008.7 |
| 20260904123019 | 44 | 152 | 0.9 | 2.6 | 0.00 | 0.00 | 0.00 | 78 | 1008.7 |
| 20260904122242 | 44 | 146 | 0.9 | 2.6 | 0.00 | 0.00 | 0.00 | 79 | 1008.7 |
| 20260904121733 | 44 | 146 | 0.9 | 2.6 | 0.00 | 0.00 | 0.00 | 78 | 1008.7 |
| 20260904121226 | 45 | 144 | 0.9 | 2.6 | 0.00 | 0.00 | 0.00 | 78 | 1008.6 |
| 20260904120721 | 45 | 144 | 0.9 | 3.5 | 0.00 | 0.00 | 0.00 | 79 | 1008.5 |
| 20260904120216 | 45 | 144 | 0.9 | 3.5 | 0.00 | 0.00 | 0.00 | 80 | 1008.5 |
| 20260904115941 | 45 | 142 | 0.9 | 3.5 | 0.00 | 0.00 | 0.00 | 80 | 1008.5 |
| 20260904115204 | 45 | 142 | 0.9 | 3.5 | 0.00 | 0.00 | 0.00 | 80 | 1008.5 |
| 20260904114703 | 45 | 140 | 0.9 | 3.5 | 0.00 | 0.00 | 0.00 | 80 | 1008.4 |
| 20260904114155 | 45 | 137 | 0.0 | 2.6 | 0.00 | 0.00 | 0.00 | 79 | 1008.4 |
| 20260904113646 | 45 | 137 | 0.9 | 2.6 | 0.00 | 0.00 | 0.00 | 80 | 1008.3 |
| 20260904113140 | 45 | 132 | 0.9 | 2.6 | 0.00 | 0.00 | 0.00 | 80 | 1008.3 |
| 20260904112636 | 45 | 128 | 0.9 | 2.6 | 0.00 | 0.00 | 0.00 | 80 | 1008.2 |
| 20260904112127 | 45 | 123 | 0.0 | 0.0 | 0.00 | 0.00 | 0.00 | 80 | 1008.2 |
| 20260904111858 | 45 | 123 | 0.0 | 0.0 | 0.00 | 0.00 | 0.00 | 79 | 1008.3 |
| 20260904111115 | 46 | 123 | 0.0 | 0.0 | 0.00 | 0.00 | 0.00 | 79 | 1008.1 |
| 20260904110611 | 46 | 123 | 0.0 | 0.0 | 0.00 | 0.00 | 0.00 | 79 | 1008.2 |
| 20260904110104 | 46 | 123 | 0.0 | 0.0 | 0.00 | 0.00 | 0.00 | 80 | 1008.1 |
| 20260904105600 | 46 | 123 | 0.0 | 1.7 | 0.00 | 0.00 | 0.00 | 80 | 1008.1 |
| 20260904105054 | 46 | 123 | 0.0 | 1.7 | 0.00 | 0.00 | 0.00 | 79 | 1008.1 |
| 20260904104545 | 46 | 122 | 0.9 | 3.5 | 0.00 | 0.00 | 0.00 | 79 | 1008.2 |
| 20260904104308 | 46 | 121 | 0.9 | 3.5 | 0.00 | 0.00 | 0.00 | 79 | 1008.1 |
| 20260904103534 | 46 | 114 | 0.0 | 2.6 | 0.00 | 0.00 | 0.00 | 79 | 1008.1 |
| 20260904103301 | 46 | 102 | 0.0 | 1.7 | 0.00 | 0.00 | 0.00 | 80 | 1008.1 |
| 20260904102521 | 46 | 95 | 0.0 | 0.9 | 0.00 | 0.00 | 0.00 | 80 | 1008.1 |
| 20260904102017 | 47 | 95 | 0.0 | 0.9 | 0.00 | 0.00 | 0.00 | 79 | 1008.0 |
| 20260904101510 | 47 | 95 | 0.0 | 3.5 | 0.00 | 0.00 | 0.00 | 78 | 1008.1 |
| 20260904101004 | 47 | 95 | 0.0 | 3.5 | 0.00 | 0.00 | 0.00 | 78 | 1007.9 |
| 20260904100500 | 47 | 76 | 0.0 | 0.9 | 0.00 | 0.00 | 0.00 | 78 | 1007.9 |
| 20260904095955 | 47 | 76 | 0.0 | 1.7 | 0.00 | 0.00 | 0.00 | 78 | 1007.9 |
| 20260904095445 | 47 | 76 | 0.0 | 1.7 | 0.00 | 0.00 | 0.00 | 78 | 1007.9 |
| 20260904094940 | 47 | 74 | 0.0 | 0.0 | 0.00 | 0.00 | 0.00 | 78 | 1007.8 |
| 20260904094433 | 47 | 74 | 0.0 | 1.7 | 0.00 | 0.00 | 0.00 | 78 | 1008.0 |
| 20260904094158 | 47 | 74 | 0.0 | 1.7 | 0.00 | 0.00 | 0.00 | 78 | 1008.0 |
| 20260904093422 | 47 | 74 | 0.0 | 1.7 | 0.00 | 0.00 | 0.00 | 78 | 1008.0 |
| 20260904092917 | 47 | 74 | 0.0 | 1.7 | 0.00 | 0.00 | 0.00 | 78 | 1008.0 |
| 20260904092401 | 47 | 74 | 0.0 | 1.7 | 0.00 | 0.00 | 0.00 | 78 | 1008.1 |
| 20260904092139 | 47 | 70 | 0.0 | 0.0 | 0.00 | 0.00 | 0.00 | 77 | 1008.0 |
| 20260904091638 | 47 | 70 | 0.0 | 0.0 | 0.00 | 0.00 | 0.00 | 77 | 1008.0 |
| 20260904090910 | 47 | 70 | 0.0 | 0.0 | 0.00 | 0.00 | 0.00 | 76 | 1008.1 |
| 20260904090641 | 47 | 70 | 0.0 | 0.9 | 0.00 | 0.00 | 0.00 | 76 | 1008.1 |
| 20260904085904 | 47 | 70 | 0.0 | 0.9 | 0.00 | 0.00 | 0.00 | 75 | 1008.0 |
| 20260904085403 | 48 | 70 | 0.0 | 0.9 | 0.00 | 0.00 | 0.00 | 75 | 1008.0 |
| 20260904085135 | 47 | 70 | 0.0 | 0.0 | 0.00 | 0.00 | 0.00 | 75 | 1008.0 |
| 20260904084403 | 47 | 70 | 0.0 | 0.0 | 0.00 | 0.00 | 0.00 | 75 | 1008.0 |
| 20260904083900 | 47 | 70 | 0.0 | 0.0 | 0.00 | 0.00 | 0.00 | 75 | 1008.0 |
| 20260904083405 | 47 | 70 | 0.0 | 0.0 | 0.00 | 0.00 | 0.00 | 75 | 1007.9 |
| 20260904082924 | 48 | 70 | 0.0 | 0.0 | 0.00 | 0.00 | 0.00 | 75 | 1007.9 |
| 20260904082920 | 48 | 70 | 0.0 | 0.0 | 0.00 | 0.00 | 0.00 | 75 | 1007.9 |
| 20260904081859 | 48 | 70 | 0.0 | 0.0 | 0.00 | 0.00 | 0.00 | 75 | 1007.9 |
| 20260904081400 | 48 | 70 | 0.0 | 0.0 | 0.00 | 0.00 | 0.00 | 75 | 1007.9 |
| 20260904080900 | 48 | 70 | 0.0 | 0.0 | 0.00 | 0.00 | 0.00 | 75 | 1007.9 |
| 20260904080358 | 48 | 70 | 0.0 | 0.0 | 0.00 | 0.00 | 0.00 | 76 | 1007.9 |
| 20260904075859 | 48 | 70 | 0.0 | 0.0 | 0.00 | 0.00 | 0.00 | 75 | 1007.9 |
| 20260904075359 | 48 | 70 | 0.0 | 0.9 | 0.00 | 0.00 | 0.00 | 76 | 1007.8 |
| 20260904074857 | 48 | 70 | 0.0 | 0.9 | 0.00 | 0.00 | 0.00 | 75 | 1007.9 |
| 20260904074355 | 48 | 70 | 0.0 | 0.0 | 0.00 | 0.00 | 0.00 | 75 | 1007.9 |
| 20260904073847 | 48 | 70 | 0.0 | 0.0 | 0.00 | 0.00 | 0.00 | 75 | 1007.8 |
| 20260904073340 | 49 | 70 | 0.0 | 0.9 | 0.00 | 0.00 | 0.00 | 75 | 1007.8 |
| 20260904072834 | 49 | 70 | 0.0 | 0.9 | 0.00 | 0.00 | 0.00 | 74 | 1007.7 |
| 20260904072327 | 49 | 70 | 0.0 | 2.6 | 0.00 | 0.00 | 0.00 | 74 | 1007.5 |
| 20260904071823 | 50 | 70 | 0.0 | 2.6 | 0.00 | 0.00 | 0.00 | 73 | 1007.5 |
| 20260904071316 | 50 | 331 | 0.0 | 0.9 | 0.00 | 0.00 | 0.00 | 73 | 1007.7 |
| 20260904070810 | 50 | 330 | 0.0 | 0.9 | 0.00 | 0.00 | 0.00 | 72 | 1007.7 |
| 20260904070305 | 50 | 330 | 0.0 | 0.9 | 0.00 | 0.00 | 0.00 | 72 | 1007.7 |
| 20260904070033 | 49 | 330 | 0.0 | 0.0 | 0.00 | 0.00 | 0.00 | 71 | 1007.8 |
| 20260904065255 | 49 | 330 | 0.0 | 0.0 | 0.00 | 0.00 | 0.00 | 72 | 1007.8 |
| 20260904064747 | 49 | 330 | 0.0 | 0.9 | 0.00 | 0.00 | 0.00 | 72 | 1007.8 |
| 20260904064243 | 49 | 330 | 0.0 | 0.0 | 0.00 | 0.00 | 0.00 | 72 | 1007.8 |
| 20260904063736 | 49 | 330 | 0.0 | 0.0 | 0.00 | 0.00 | 0.00 | 71 | 1007.7 |
| 20260904063458 | 49 | 330 | 0.0 | 0.0 | 0.00 | 0.00 | 0.00 | 71 | 1007.7 |
| 20260904062723 | 49 | 330 | 0.0 | 0.0 | 0.00 | 0.00 | 0.00 | 71 | 1007.7 |
| 20260904062217 | 49 | 330 | 0.0 | 0.0 | 0.00 | 0.00 | 0.00 | 71 | 1007.7 |
| 20260904061712 | 49 | 331 | 0.0 | 0.0 | 0.00 | 0.00 | 0.00 | 71 | 1007.7 |
| 20260904061208 | 50 | 331 | 0.0 | 0.0 | 0.00 | 0.00 | 0.00 | 70 | 1007.5 |
| 20260904060937 | 50 | 331 | 0.0 | 0.0 | 0.00 | 0.00 | 0.00 | 71 | 1007.5 |
| 20260904060154 | 50 | 331 | 0.0 | 0.0 | 0.00 | 0.00 | 0.00 | 71 | 1007.5 |
| 20260904055651 | 50 | 331 | 0.0 | 0.0 | 0.00 | 0.00 | 0.00 | 70 | 1007.7 |
| 20260904055143 | 51 | 331 | 0.0 | 0.0 | 0.00 | 0.00 | 0.00 | 70 | 1007.5 |
| 20260904054636 | 51 | 331 | 0.0 | 0.0 | 0.00 | 0.00 | 0.00 | 70 | 1007.5 |
| 20260904054130 | 51 | 331 | 0.0 | 0.0 | 0.00 | 0.00 | 0.00 | 70 | 1007.7 |
| 20260904053623 | 51 | 331 | 0.0 | 0.0 | 0.00 | 0.00 | 0.00 | 70 | 1007.7 |
| 20260904053121 | 51 | 331 | 0.0 | 0.0 | 0.00 | 0.00 | 0.00 | 69 | 1007.8 |
| 20260904052843 | 51 | 331 | 0.0 | 0.0 | 0.00 | 0.00 | 0.00 | 69 | 1007.8 |
| 20260904052110 | 51 | 331 | 0.0 | 0.0 | 0.00 | 0.00 | 0.00 | 69 | 1007.7 |
| 20260904051833 | 51 | 331 | 0.0 | 0.0 | 0.00 | 0.00 | 0.00 | 68 | 1007.7 |
| 20260904051110 | 51 | 331 | 0.0 | 1.7 | 0.00 | 0.00 | 0.00 | 68 | 1007.8 |
| 20260904051102 | 51 | 331 | 0.0 | 1.7 | 0.00 | 0.00 | 0.00 | 68 | 1007.8 |
| 20260904050041 | 52 | 330 | 0.9 | 3.5 | 0.00 | 0.00 | 0.00 | 68 | 1007.7 |
| 20260904045536 | 52 | 330 | 1.7 | 3.5 | 0.00 | 0.00 | 0.00 | 67 | 1007.7 |
| 20260904045030 | 52 | 329 | 1.7 | 5.2 | 0.00 | 0.01 | 0.00 | 67 | 1007.7 |
| 20260904044524 | 52 | 332 | 1.7 | 5.2 | 0.00 | 0.01 | 0.00 | 66 | 1007.4 |